Weather History for Hot Springs, VA

Change the Weather History Date:

Wednesday, December 30, 2009

  Actual Average Record
Temperature  
Mean Temperature 19 °F -  
Max Temperature 26 °F 33 °F 55 °F (1996)
Min Temperature 12 °F 20 °F 3 °F (2000)
Degree Days  
Heating Degree Days 46    
Moisture  
Dew Point 5 °F    
Average Humidity 55    
Maximum Humidity 80    
Minimum Humidity 21    
Precipitation  
Precipitation 0.00 in - - ()
Sea Level Pressure  
Sea Level Pressure 30.24 in    
Wind  
Wind Speed 5 mph (South)    
Max Wind Speed 12 mph    
Max Gust Speed 17 mph    
Visibility 10 miles    
Events      
Averages and records for this station are not official NWS values.
T = Trace of Precipitation, MM = Missing Value Source: NWS Daily Summary

Daily Weather History Graph

Daily Weather History Graph

Search for Another Location

Airport:

Trip Planner

Search our weather history database for the weather conditions in past years. The results will help you decide how hot, cold, wet, or windy it might be!

Date:

Astronomy

Dec. 30, 2009 Rise Set
Actual Time 7:34 AM EST 5:09 PM EST
Civil Twilight 7:05 AM EST 5:38 PM EST
Nautical Twilight 6:32 AM EST 6:11 PM EST
Astronomical Twilight 6:00 AM EST 6:43 PM EST
Moon 3:59 PM EST (12/30) 6:29 AM EST (12/30)
Length of Visible Light 10h 33m
Length of Day
9h 34m
Waxing Gibbous, 98% of the Moon is Illuminated
Dec 30
Waxing Gibbous
Dec 31
Full
Jan 7
Last Quarter
Jan 15
New
Jan 23
First Quarter

Hourly Weather History & Observations

Time (EST) Temp. Windchill Dew Point Humidity Pressure Visibility Wind Dir Wind Speed Gust Speed Precip Events Conditions
12:00 AM 12.2 °F 2.9 °F 6.8 °F 79% 30.28 in 10.0 mi SSW 5.8 mph - N/A   Clear
12:20 AM 12.2 °F - 5.0 °F 73% 30.28 in 10.0 mi Calm Calm - N/A   Clear
12:40 AM 14.0 °F 8.2 °F 3.2 °F 62% 30.28 in 10.0 mi SSW 3.5 mph - N/A   Clear
1:00 AM 14.0 °F 8.2 °F 3.2 °F 62% 30.27 in 10.0 mi South 3.5 mph - N/A   Clear
1:19 AM 12.2 °F - 3.2 °F 67% 30.27 in 10.0 mi Calm Calm - N/A   Clear
1:40 AM 15.8 °F 8.6 °F 3.2 °F 58% 30.27 in 10.0 mi West 4.6 mph - N/A   Clear
2:01 AM 14.0 °F - 3.2 °F 62% 30.27 in 10.0 mi Calm Calm - N/A   Clear
2:20 AM 17.6 °F - -2.2 °F 42% 30.27 in 10.0 mi Calm Calm - N/A   Clear
2:40 AM 15.8 °F 10.2 °F 1.4 °F 53% 30.27 in 10.0 mi SW 3.5 mph - N/A   Clear
3:00 AM 17.6 °F - -2.2 °F 42% 30.27 in 10.0 mi Calm Calm - N/A   Clear
3:21 AM 19.4 °F - -5.8 °F 33% 30.28 in 10.0 mi Calm Calm - N/A   Clear
3:40 AM 19.4 °F 12.8 °F -5.8 °F 33% 30.27 in 10.0 mi South 4.6 mph - N/A   Clear
3:59 AM 19.4 °F 8.6 °F -2.2 °F 39% 30.27 in 10.0 mi South 9.2 mph - N/A   Clear
4:19 AM 19.4 °F 7.9 °F -2.2 °F 39% 30.28 in 10.0 mi South 10.4 mph - N/A   Clear
4:40 AM 21.2 °F 10.9 °F -5.8 °F 30% 30.28 in 10.0 mi South 9.2 mph - N/A   Clear
5:00 AM 21.2 °F 11.7 °F -7.6 °F 28% 30.27 in 10.0 mi South 8.1 mph - N/A   Clear
5:20 AM 21.2 °F 10.9 °F -5.8 °F 30% 30.27 in 10.0 mi South 9.2 mph - N/A   Clear
5:40 AM 23.0 °F 13.9 °F -5.8 °F 28% 30.26 in 10.0 mi South 8.1 mph - N/A   Clear
6:00 AM 23.0 °F 13.9 °F -5.8 °F 28% 30.26 in 10.0 mi South 8.1 mph - N/A   Clear
6:20 AM 23.0 °F 13.1 °F -5.8 °F 28% 30.26 in 10.0 mi South 9.2 mph - N/A   Clear
6:40 AM 24.8 °F 16.9 °F -7.6 °F 24% 30.28 in 10.0 mi SSW 6.9 mph - N/A   Clear
7:00 AM 24.8 °F 14.0 °F -7.6 °F 24% 30.27 in 10.0 mi South 11.5 mph - N/A   Clear
7:20 AM 23.0 °F 13.1 °F -5.8 °F 28% 30.28 in 10.0 mi SSW 9.2 mph - N/A   Clear
7:40 AM 24.8 °F 16.9 °F -7.6 °F 24% 30.28 in 10.0 mi SSW 6.9 mph - N/A   Clear
8:00 AM 26.6 °F 19.1 °F -9.4 °F 21% 30.28 in 10.0 mi SSW 6.9 mph - N/A   Clear
8:19 AM 26.6 °F 18.2 °F -9.4 °F 21% 30.28 in - SSW 8.1 mph - N/A   Clear
8:42 AM 24.8 °F 16.9 °F -2.2 °F 31% 30.29 in 10.0 mi SSW 6.9 mph - N/A   Clear
9:00 AM 24.8 °F 17.9 °F 3.2 °F 40% 30.28 in 10.0 mi SSW 5.8 mph - N/A   Clear
9:20 AM 21.2 °F 11.7 °F 6.8 °F 54% 30.28 in 10.0 mi South 8.1 mph 17.3 mph N/A   Scattered Clouds
9:40 AM 19.4 °F 10.4 °F 8.6 °F 63% 30.28 in 10.0 mi South 6.9 mph - N/A   Clear
10:00 AM 17.6 °F 6.4 °F 8.6 °F 68% 30.28 in 10.0 mi SSE 9.2 mph - N/A   Clear
10:20 AM 19.4 °F 7.9 °F 8.6 °F 63% 30.29 in 10.0 mi South 10.4 mph 16.1 mph N/A   Clear
10:40 AM 21.2 °F 14.9 °F 10.4 °F 63% 30.29 in 10.0 mi SSW 4.6 mph - N/A   Clear
11:00 AM 19.4 °F - 10.4 °F 68% 30.29 in 10.0 mi Calm Calm - N/A   Clear
11:20 AM 21.2 °F 12.6 °F 10.4 °F 63% 30.28 in 10.0 mi SSW 6.9 mph - N/A   Scattered Clouds
11:40 AM 19.4 °F 14.3 °F 10.4 °F 68% 30.26 in 10.0 mi SSE 3.5 mph - N/A   Scattered Clouds
12:00 PM 21.2 °F 13.6 °F 12.2 °F 68% 30.25 in 10.0 mi SW 5.8 mph - N/A   Scattered Clouds
12:20 PM 21.2 °F 13.6 °F 12.2 °F 68% 30.25 in 10.0 mi SSW 5.8 mph - N/A   Scattered Clouds
12:41 PM 24.8 °F 20.5 °F 12.2 °F 59% 30.22 in 10.0 mi SW 3.5 mph - N/A   Scattered Clouds
1:00 PM 21.2 °F 16.4 °F 12.2 °F 68% 30.22 in 10.0 mi South 3.5 mph - N/A   Scattered Clouds
1:20 PM 21.2 °F 16.4 °F 14.0 °F 74% 30.21 in 10.0 mi South 3.5 mph - N/A   Scattered Clouds
1:41 PM 23.0 °F 18.4 °F 14.0 °F 68% 30.20 in 10.0 mi South 3.5 mph - N/A   Scattered Clouds
2:01 PM 24.8 °F - 14.0 °F 64% 30.20 in 10.0 mi Calm Calm - N/A   Clear
2:20 PM 24.8 °F - 15.8 °F 69% 30.19 in 10.0 mi Calm Calm - N/A   Clear
2:41 PM 23.0 °F 18.4 °F 14.0 °F 68% 30.19 in 10.0 mi South 3.5 mph - N/A   Scattered Clouds
3:00 PM 23.0 °F 17.0 °F 14.0 °F 68% 30.18 in 10.0 mi SE 4.6 mph - N/A   Mostly Cloudy
3:20 PM 21.2 °F 16.4 °F 14.0 °F 74% 30.17 in 10.0 mi SE 3.5 mph - N/A   Overcast
3:40 PM 24.8 °F 20.5 °F 14.0 °F 64% 30.16 in 10.0 mi SE 3.5 mph - N/A   Mostly Cloudy
4:00 PM 23.0 °F 17.0 °F 14.0 °F 68% 30.20 in 10.0 mi WSW 4.6 mph - N/A   Mostly Cloudy
4:20 PM 23.0 °F - 15.8 °F 74% 30.18 in 10.0 mi Calm Calm - N/A   Overcast
4:40 PM 21.2 °F - 14.0 °F 74% 30.19 in 10.0 mi Calm Calm - N/A   Overcast
5:00 PM 21.2 °F 13.6 °F 14.0 °F 74% 30.17 in 10.0 mi SSE 5.8 mph - N/A   Scattered Clouds
5:20 PM 19.4 °F 10.4 °F 14.0 °F 80% 30.16 in 10.0 mi SSE 6.9 mph - N/A   Mostly Cloudy
5:41 PM 19.4 °F 12.8 °F 12.2 °F 74% 30.16 in 10.0 mi South 4.6 mph - N/A   Clear
6:00 PM 19.4 °F 11.5 °F 12.2 °F 74% 30.18 in 10.0 mi SW 5.8 mph - N/A   Clear
6:20 PM 21.2 °F 12.6 °F 12.2 °F 68% 30.17 in 10.0 mi South 6.9 mph - N/A   Clear
6:40 PM 21.2 °F 10.1 °F 12.2 °F 68% 30.16 in 10.0 mi South 10.4 mph - N/A   Clear
7:00 PM 21.2 °F 12.6 °F 12.2 °F 68% 30.16 in 10.0 mi South 6.9 mph - N/A   Clear
7:21 PM 21.2 °F 12.6 °F 12.2 °F 68% 30.15 in 10.0 mi South 6.9 mph - N/A   Clear
7:40 PM 21.2 °F 13.6 °F 12.2 °F 68% 30.16 in 10.0 mi SSW 5.8 mph - N/A   Clear
8:01 PM 21.2 °F 10.9 °F 12.2 °F 68% 30.14 in 10.0 mi South 9.2 mph - N/A   Scattered Clouds
8:20 PM 23.0 °F 17.0 °F 12.2 °F 63% 30.15 in 10.0 mi SSW 4.6 mph - N/A   Overcast
8:40 PM 23.0 °F 14.7 °F 12.2 °F 63% 30.16 in 10.0 mi SSW 6.9 mph - N/A   Mostly Cloudy
9:00 PM 23.0 °F 14.7 °F 12.2 °F 63% 30.16 in 10.0 mi South 6.9 mph - N/A   Mostly Cloudy
9:20 PM 24.8 °F 16.9 °F 12.2 °F 59% 30.14 in 10.0 mi South 6.9 mph - N/A   Scattered Clouds
9:40 PM 24.8 °F 16.9 °F 12.2 °F 59% 30.14 in 10.0 mi SSW 6.9 mph - N/A   Mostly Cloudy
10:00 PM 24.8 °F 16.1 °F 12.2 °F 59% 30.15 in 10.0 mi South 8.1 mph - N/A   Overcast
10:20 PM 24.8 °F 19.1 °F 12.2 °F 59% 30.13 in 10.0 mi South 4.6 mph - N/A   Overcast
10:40 PM 28.4 °F 22.2 °F 12.2 °F 51% 30.13 in 10.0 mi SSW 5.8 mph - N/A   Overcast
11:00 PM 30.2 °F 19.8 °F 19.4 °F 64% 30.13 in 10.0 mi SW 13.8 mph 24.2 mph N/A   Overcast
11:20 PM 30.2 °F 17.8 °F 23.0 °F 75% 30.13 in 10.0 mi SW 19.6 mph 24.2 mph N/A   Overcast
11:40 PM 30.2 °F 19.8 °F 23.0 °F 75% 30.11 in 10.0 mi SW 13.8 mph 20.7 mph N/A   Overcast